Regional Weather Roundup
Issued by NWS Sterling, VA

Home | Current Version | Previous Version | Graphics & Text | Print | Product List | Glossary On
Versions: 1 2 3 4 5 6 7 8 9 10 11 12 13 14 15 16 17 18 19 20 21 22 23 24 25 26 27 28 29 30 31 32 33 34 35 36 37 38 39 40 41 42 43 44 45 46 47 48 49 50
000
ASUS41 KLWX 222111
RWRLWX

REGIONAL WEATHER ROUNDUP
NATIONAL WEATHER SERVICE BALTIMORE MD/WASHINGTON DC
500 PM EDT TUE AUG 22 2017

Note: "FAIR" indicates few or no clouds below 12,000 feet
with no significant weather and/or obstructions to visibility.
 TC=TEMPERATURE CELSIUS

 * =Non NWS site. Station does not report precipitation (e.g. rain,
    snow, etc.), thunder, or fog.

DCZ001-MDZ009-015-VAZ040>042-051-053>054-222200-
WASHINGTON METRO

CITY           SKY/WX    TMP DP  RH WIND       PRES   REMARKS
WASHINGTON NAT MOSUNNY   92  72  51 S18G25    29.85F HX  99
DULLES         MOSUNNY   90  73  57 S14G21    29.85F HX  98
ANDREWS AFB    SUNNY     90  69  49 S18G24    29.86F HX  94
FT BELVOIR     SUNNY     91  70  50 S9        29.85F HX  96
QUANTICO       SUNNY     90  76  63 S14       29.86F HX 101
COLLEGE PARK*  SUNNY     92  69  47 S12G18    29.85F HX  97
LEESBURG*      SUNNY     93  72  49 SW9       29.85F HX 100
MANASSAS*      MOSUNNY   91  75  59 S15       29.86F HX 101
GAITHERSBURG*  SUNNY     91  72  53 S10G23    29.87F HX  98

$$

MDZ006>007-011-014-222200-
BALTIMORE METRO

CITY           SKY/WX    TMP DP  RH WIND       PRES   REMARKS
BWI AIRPORT    MOSUNNY   91  72  53 SW13G20   29.84F HX  98
MD SCIENCE CTR   N/A     93  70  46 MISG      29.84F HX  99
MARTIN STATE   MOSUNNY   91  75  59 S14G23    29.86F HX 102
ANNAPOLIS      SUNNY     92  74  55 S14G21    29.85F HX 101
FORT MEADE*    SUNNY     88  70  55 S8        29.88F HX  92

$$

MDZ012-015-019>023-222200-
MARYLAND EASTERN SHORE

CITY           SKY/WX    TMP DP  RH WIND       PRES   REMARKS
OCEAN CITY     SUNNY     82  77  84 S13G21    29.94F HX  90
SALISBURY      SUNNY     88  71  57 S14       29.92F HX  94
BAY BRIDGE AP* SUNNY     90  73  58 S13G18    29.87F HX  98
CAMBRIDGE*     SUNNY     88  77  70 S13G23    29.89F HX 100
EASTON*        SUNNY     91  73  55 SW18G25   29.92F HX 100

$$

MDZ017>025-222200-
SOUTHERN MARYLAND

CITY           SKY/WX    TMP DP  RH WIND       PRES   REMARKS
PATUXENT RIVER SUNNY     89  73  59 S10G21    29.89F HX  97
ST INIGOES     SUNNY     89  75  63 S8G18     29.89F HX  99
LEONARDTOWN*   SUNNY     90  70  51 S9        29.91F HX  95

$$

MDZ003>005-222200-
NORTH CENTRAL MARYLAND

CITY           SKY/WX    TMP DP  RH WIND       PRES   REMARKS
FREDERICK*     MOSUNNY   93  70  46 S14G20    29.86F HX  99
HAGERSTOWN APT MOSUNNY   91  71  51 S17       29.82F HX  97
WESTMINSTER*   SUNNY     97  72  44 S10G17    29.86F HX 105

$$

MDZ501>502-222200-
WESTERN MARYLAND

CITY           SKY/WX    TMP DP  RH WIND       PRES   REMARKS
OAKLAND*       SUNNY     79  61  53 SW10G20   29.95F
CUMBERLAND*    SUNNY     93  61  33 SW12G18   29.86F HX  93

$$

VAZ025>031-222200-
SHENANDOAH VALLEY

CITY           SKY/WX    TMP DP  RH WIND       PRES   REMARKS
WINCHESTER*    SUNNY     90  72  55 S12       29.84F HX  96
FRONT ROYAL*   SUNNY     90  68  48 SW10G21   29.85F HX  93
LURAY*         SUNNY     91  64  40 S14G21    29.87F HX  93
NEW MARKET*    MOSUNNY   92  63  38 SW10G24   29.86F HX  93
STAUNTON*      PTSUNNY   90  67  47 S13       29.93F HX  93
WAYNESBORO*    MOSUNNY   91  67  45 SW13G18   29.94F HX  94

$$

WVZ021-048>050-054>055-222200-
EASTERN WEST VIRGINIA PANHANDLE

CITY           SKY/WX    TMP DP  RH WIND       PRES   REMARKS
MARTINSBURG    MOSUNNY   89  72  56 S9        29.82F HX  96
PETERSBURG*    MOSUNNY   94  67  40 SW9       29.85F HX  97

$$

VAZ036>039-050-222200-
CENTRAL FOOTHILLS

CITY           SKY/WX    TMP DP  RH WIND       PRES   REMARKS
CHARLOTTESVILL MOSUNNY   93  65  39 SW9       29.88F HX  95
CULPEPER*      MOSUNNY   94  71  45 S10       29.86F HX 101
ORANGE*        PTSUNNY   91  66  43 S10G17    29.87F HX  94
GORDONSVILLE*  PTSUNNY   92  69  46 S10G16    29.87F HX  98
WARRENTON*     MOSUNNY   94  67  42 S10       29.85F HX  97

$$

VAZ055>057-222200-
NORTH AND CENTRAL PIEDMONT

CITY           SKY/WX    TMP DP  RH WIND       PRES   REMARKS
FREDERICKSBRG* SUNNY     93  72  50 S10       29.86F HX 100
STAFFORD*      SUNNY     90  67  46 S15G21    29.90F HX  93

$$

NCZ024-NYZ072-PAZ021-071-VAZ022-071-222200-
OTHER REGIONAL OBSERVATIONS

CITY           SKY/WX    TMP DP  RH WIND       PRES   REMARKS
NEW YORK CITY  MOSUNNY   88  71  57 VRB6G17   29.84F HX  94
PHILADELPHIA   MOSUNNY   92  71  50 SW18G30   29.85F HX  98
PITTSBURGH     LGT RAIN  74  71  91 SW9       29.85F
ROANOKE        MOSUNNY   95  62  33 SW9       29.96F HX  96
RICHMOND       MOSUNNY   89  72  56 S15       29.91F HX  96
RALEIGH        MOSUNNY   92  71  50 S10       29.96F HX  98

$$

ANZ530>537-222200-
MARINE OBSERVATIONS

STATION/POSITION TIME  TEMP    WIND        PRES
                       AIR SEA DIR/SP/G
                 (UTC) (F)     (DEG/KT/KT) (MB)
THOMAS PT LIGHT  2100   84 82  170/ 18/ 19   N/A
BALT KEY BRIDGE  2042   89     190/ 12/ 18 1010.5F
COVE POINT       2042   83     170/ 17/ 19 1012.9F
LEWISETTA        2042   89 85  220/ 14/ 16 1012.5F
SOLOMONS ISLAND  2042   88 83  200/ 13/ 17   N/A
PINEY POINT      2036          210/ 15/ 17   N/A

$$




USA.gov is the U.S. government's official web portal to all federal, state and local government web resources and services.